Location: Frankfurt+(oder)
(51.7984°N, 12.2168°E)
Time: 18:17:06
(UTC+01:00)

ISS - Visible Passes

Search period start: 21 November 2017 00:00
Search period end: 01 December 2017 00:00
Orbit: 402 x 407 km, 51.6° (Epoch: 22 November)

Date Brightness Start Highest point End Pass type
(mag) Time Alt. Az. Time Alt. Az. Time Alt. Az.
28 Nov -1.4 18:16:52 10° S 18:17:52 14° SSE 18:17:52 14° SSE visible
29 Nov -1.3 17:26:35 10° SE 17:26:53 10° SE 17:27:12 10° SE visible
29 Nov -1.1 18:59:35 10° SW 19:00:26 16° SW 19:00:26 16° SW visible
30 Nov -2.5 18:07:35 10° SSW 18:10:16 27° SSE 18:10:16 27° SSE visible
